ATLAS 5 CENTAUR DEB *, 43950

Orbit data source: Space-Track

ATLAS 5 CENTAUR DEB *, 43950 is space debris in HEO originally from a launch on Wed, 17 Sep 2014 UTC launched from the Air Force Eastern Test Range (AFETR). Debris objects in space refer to the collection of defunct objects orbiting the Earth. Examples of debris include non-operational satellites, rocket bodies, and fragments generated from explosions, collisions, or faulty payload assembly.

Loading next visibility...
Identifier
43950, 2014-055D
Orbit
HEO
Country
Flag of USUS
Related business
Flag of USUnited Launch Alliance/Lockheed Martin (US)
Manufacturer
Unknown
Mission
Spacecraft
Bus & Motor
Unknown
Mass
Unknown
Launch date (UTC)
2014-09-17 (11 years ago)
Launch vehicle
Unknown
Launch site
Air Force Eastern Test Range (AFETR)
Object type
Payload
Rocket body
Debris
Shape & HBR
Unknown shape, 1.1 m
Radar Cross Section
Small (<0.1 m²)

Expand to show TLE details & history
Last TLE update: 1 day ago

TLE from 1 day ago
0 ATLAS 5 CENTAUR DEB *
1 43950U 14055D   25286.17279016  .00000066  00000-0  00000-0 0  9994
2 43950  21.8822 125.9527 5142094 209.2338 108.2097  1.95808747 50842
Epoch: 2025-10-13T04:08Z
TLE epoch observation values (Epoch: 2025-10-13T04:08:49.069Z)
Latitude
-0.00005°
Longitude
41.78873°
Altitude
29,610.812 km
Speed
2.717 km/s
True Right ascension
08h 23m 53s
True Declination
0° 00' 00"
Sunlit
Object was in daylight at epoch
Visualization orbit readout
Latitude
Unknown
Longitude
Unknown
Altitude
Unknown
Speed
Unknown
Apparent Right ascension
Unknown
Apparent Declination
Unknown
Sunlit
N/A
Visualization observer readout
Local Sidereal Time
02:14:04
Azimuth
Unknown
Elevation
Unknown
Doppler factor
Unknown
Orbital elements
Apogee altitude
34,491.389 km
Perigee altitude
6,733.677 km
Semi-major axis
26,990.67 km
Eccentricity
0.51421
Inclination
21.8822°
RAAN
125.9527°
Arg. of periapsis
209.2338°
True anomaly
150.78584°
Mean anomaly
108.2097°
Eccentric anomaly
130.58454°
Mean motion
0.48947 °/min
Orbital period
735.5 mins
BSTAR
0
Loading maneuver chart data...
Computing Atmospheric mass density...

Documentation

Showing up to 5 results
|